Location: Unspecified
(45.3712°N, 0.6436°E)
Time: 00:11:44
(UTC+01:00)

OTV 5 (USA 277) - Visible Passes

Search period start: 16 February 2019 00:00
Search period end: 26 February 2019 00:00
Orbit: 342 x 346 km, 54.5° (Epoch: 09 February)

Date Brightness Start Highest point End Pass type
(mag) Time Alt. Az. Time Alt. Az. Time Alt. Az.
16 Feb ? 06:44:38 20° SW 06:44:40 20° SW 06:46:53 10° S visible
23 Feb ? 19:36:41 10° SSE 19:38:22 14° SE 19:38:23 14° SE visible
24 Feb ? 19:59:01 10° SSW 20:01:45 42° SE 20:01:55 42° SE visible
25 Feb ? 20:22:31 10° WSW 20:25:18 61° NW 20:25:18 61° NW visible
